TIME,DELAY(SENSOR),PRES,OXYGEN,RAWTEMP,T(OPTODE),TCPHASE,FLUOR,BETA(BETA700),BETA(BETA412),BETA(BETA440),CDOM,C(CSC),ED(ED411.90),ED(ED443.80),ED(ED489.40),ED(ED554.70),LU(LU412.20),LU(LU443.80),LU(LU489.40),LU(LU555.00),COMP,TILTX,TILTY,CHECK
1343170520,5804,880.7899780273438000,173.0204925537109400,453.6671142578125000,9.3237009048461910,39.4567298889160160,51,105,102,83,74,15417,2147449362,2147791899,2147579437,2147824109,2147306596,2147457069,2147752969,2148269083,3523,6,14,72
1343174116,5804,8.5000000000000000,210.0538940429687500,524.9824829101562000,7.0959491729736330,38.3011703491210940,50,108,102,82,75,15411,2147436068,2147800228,2147584667,2147832941,2147304841,2147452214,2147767177,2148279707,774,6,14,53576
1343177716,5806,10.8999996185302730,218.3876037597656200,532.8972778320312000,6.8465747833251950,37.9635009765625000,51,107,102,83,77,15408,2147433316,2147794605,2147581906,2147833654,2147304228,2147451072,2147764653,2148279442,91,6,14,14714
1343181316,5805,10.0000000000000000,223.7427978515625000,536.2119140625000000,6.7419991493225100,37.7253913879394500,51,107,102,86,76,15410,2147430756,2147800283,2147585773,2147836736,2147304557,2147454189,2147765339,2148281600,413,6,14,38741
1343184916,5801,10.3000001907348630,224.6110992431640600,537.8253784179688000,6.6910648345947270,37.7064704895019500,51,104,102,82,75,15390,2147436123,2147801325,2147583689,2147835858,2147303634,2147450121,2147765330,2148280054,705,6,14,65227
1343188516,5806,11.6000003814697270,225.2032928466797000,538.0988159179688000,6.6824321746826170,37.6785202026367200,50,105,104,82,76,15403,2147433746,2147799945,2147586139,2147833197,2147303497,2147454171,2147766592,2148279524,370,6,14,16444
1343192116,5805,11.0000000000000000,225.7292022705078000,538.8175048828125000,6.6597352027893070,37.6637496948242200,51,104,104,81,76,15398,2147430473,2147798464,2147587949,2147836187,2147306048,2147449334,2147768128,2148279186,432,6,15,46315
1343195716,5802,12.3000001907348630,225.9819946289062500,538.2822265625000000,6.6766400337219240,37.6402893066406250,51,105,101,82,77,15398,2147431908,2147799597,2147586002,2147836150,2147302198,2147448356,2147762322,2148281225,61,6,14,61061
1343199316,5802,12.1999998092651370,225.6269989013672000,537.9832153320312000,6.6860852241516110,37.6539497375488300,51,106,102,80,75,15380,2147430994,2147800329,2147585545,2147833481,2147303286,2147452836,2147765760,2148278921,271,6,14,59192
1343202916,5805,1023.0000000000000000,225.3271026611328000,538.7918701171875000,6.6605448722839355,37.6845893859863300,51,105,102,81,77,15391,2147428662,2147798253,2147587830,2147836900,2147302784,2147449865,2147765668,2148279798,248,6,15,47298
1343206516,5802,12.6000003814697270,226.5621032714843800,539.1763916015625000,6.6484007835388180,37.6242790222168000,51,103,100,82,76,15390,2147429348,2147798308,2147585581,2147835913,2147306221,2147449115,2147766381,2148281782,63,6,14,50537
1343210116,5803,12.3999996185302730,225.7485046386718800,539.3035888671875000,6.6443819999694820,37.6710815429687500,51,103,102,81,74,15392,2147430774,2147802843,2147583104,2147833618,2147306093,2147450212,2147763337,2148281033,197,6,14,63301
1343213716,5807,12.3000001907348630,224.9398040771484400,539.5792236328125000,6.6356768608093260,37.7198410034179700,51,104,103,83,76,15393,2147430546,2147801609,2147586569,2147834761,2147304877,2147450020,2147767305,2148282285,48,6,14,59674
1343217316,5805,12.6000003814697270,224.7938995361328000,539.6550292968750000,6.6332840919494630,37.7295188903808600,51,105,101,82,75,15392,2147432466,2147801517,2147584448,2147834038,2147302573,2147444352,2147767762,2148280768,3331,6,15,14404
1343220916,5805,12.3999996185302730,226.0245971679687500,540.0698852539062000,6.6201758384704590,37.6697311401367200,50,104,103,82,76,15389,2147432594,2147799616,2147586349,2147835547,2147306166,2147445942,2147770176,2148282496,57,6,14,42148
1343224516,5805,12.5000000000000000,225.7433013916015600,540.6071777343750000,6.6032028198242190,37.6944007873535160,50,115,103,83,76,15392,2147430454,2147802486,2147584685,2147833024,2147302226,2147444854,2147767414,2148281636,406,6,14,25660
1343228116,5805,12.6999998092651370,227.5151062011718800,540.4224853515625000,6.6090369224548340,37.5955314636230500,51,104,103,83,76,15386,2147431954,2147802916,2147585673,2147835446,2147303789,2147445513,2147766070,2148280466,209,6,14,30881
1343231716,5804,13.1000003814697270,226.5858001708984400,540.3391723632812000,6.6116681098937990,37.6445808410644500,51,107,102,82,76,15365,2147432640,2147803858,2147585005,2147834861,2147303542,2147448740,2147766838,2148281289,158,6,14,35894
1343235316,5803,12.3000001907348630,225.0050964355468800,539.7335815429688000,6.6307997703552250,37.7188796997070300,50,103,102,83,77,15363,2147429522,2147799881,2147586733,2147832868,2147304905,2147449517,2147769152,2148282505,331,6,14,23230
1343238916,5805,12.0000000000000000,226.6123046875000000,539.9503173828125000,6.6239547729492190,37.6354293823242200,52,104,104,82,75,15361,2147432484,2147800914,2147584137,2147835492,2147304777,2147447296,2147767414,2148282185,3319,6,14,61246
1343242516,5803,13.0000000000000000,227.0953063964843800,540.5687255859375000,6.6044158935546875,37.6206016540527340,51,104,101,82,76,15351,2147428068,2147801334,2147583040,2147835227,2147305462,2147449846,2147768576,2148280539,3439,6,14,31430
1343246116,5804,13.0000000000000000,226.8161926269531200,540.6027221679688000,6.6033439636230470,37.6363792419433600,51,103,102,83,75,15360,2147429056,2147799396,2147585024,2147838016,2147305883,2147450048,2147767497,2148279542,135,6,14,17753
1343249716,5805,13.3999996185302730,227.6981048583984400,540.5070800781250000,6.6063628196716310,37.5872497558593750,51,104,102,82,77,15319,2147428818,2147800137,2147584685,2147834806,2147303926,2147445906,2147767067,2148280548,114,6,15,14533
1343253316,5804,13.3999996185302730,225.3502960205078000,537.9738769531250000,6.6863770484924320,37.6689300537109400,50,105,105,82,75,15327,2147432566,2147798976,2147587273,2147834788,2147305874,2147449874,2147768539,2148282020,3459,6,14,57769
1343256916,5804,1095.0000000000000000,226.7758941650390600,539.2221069335938000,6.6469569206237790,37.6133995056152340,51,109,102,83,76,15336,2147424758,2147796726,2147583561,2147835035,2147302272,2147452022,2147768118,2148279332,3341,6,15,23489
1343260516,5802,11.8000001907348630,226.0326995849609400,539.7498779296875000,6.6302847862243650,37.6637611389160160,51,119,104,83,77,15334,2147435940,2147801490,2147584192,2147835638,2147302372,2147443556,2147766976,2148279826,728,6,14,13182
1343264116,5804,12.8000001907348630,225.9503936767578000,540.9099121093750000,6.5936369895935060,37.6891098022460940,52,104,104,82,76,15336,2147431296,2147800694,2147583945,2147836269,2147302656,2147442825,2147767990,2148278912,128,6,14,61584
1343267716,5803,1019.0000000000000000,225.2187042236328000,541.2965087890625000,6.5814208984375000,37.7358818054199200,51,105,102,83,77,15334,2147430025,2147799707,2147587364,2147834532,2147303734,2147446372,2147769362,2148283108,3157,6,14,28628
1343271316,5805,10.5000000000000000,226.0346984863281200,540.9423828125000000,6.5926070213317870,37.6848793029785160,51,106,103,83,76,15338,2147430628,2147801453,2147583744,2147839533,2147303360,2147443264,2147765476,2148280466,98,6,14,45100
1343274916,5803,1242.0000000000000000,226.0417938232422000,541.0142211914062000,6.5903401374816895,37.6861991882324200,51,103,101,82,77,15335,2147432777,2147803017,2147585033,2147835136,2147303140,2147447314,2147768749,2148280109,3454,6,15,3776
1343278516,5801,12.6999998092651370,226.4100952148437500,539.9547119140625000,6.6238160133361820,37.6468391418457000,50,104,101,84,75,15332,2147429778,2147801664,2147585472,2147836781,2147302198,2147449344,2147768118,2148279076,260,6,15,1649
1343282116,5804,12.3000001907348630,225.3666992187500000,539.8146972656250000,6.6282391548156740,37.7008209228515600,50,104,104,82,76,15332,2147431542,2147799094,2147583524,2147835648,2147306404,2147448768,2147769179,2148279680,581,6,15,15714
1343285716,5808,1047.0000000000000000,223.8683013916015600,539.1782226562500000,6.6483440399169920,37.7713508605957000,51,104,103,83,76,15329,2147427693,2147798738,2147584813,2147838372,2147303296,2147448868,2147763812,2148279744,64,6,14,14403
1343289316,5804,1047.0000000000000000,225.4425964355468800,539.4301757812500000,6.6403827667236330,37.6898498535156250,51,108,102,84,77,15324,2147430893,2147800301,2147585426,2147837924,2147303826,2147447853,2147770395,2148280484,316,6,15,8368
1343292916,5804,13.1999998092651370,224.5337066650390600,539.6995849609375000,6.6318759918212890,37.7445907592773440,51,105,103,81,76,15325,2147431616,2147797293,2147583177,2147839926,2147305179,2147451190,2147769024,2148278765,3549,6,14,27545
1343296516,5803,10.6000003814697270,219.3858032226562500,533.2838745117188000,6.8343830108642580,37.9148597717285160,51,106,103,83,76,15315,2147433225,2147796882,2147582226,2147833572,2147304073,2147447890,2147766665,2148281014,3325,6,14,46716
1343300116,5804,10.8000001907348630,218.5222015380859400,533.3582153320312000,6.8320388793945310,37.9645385742187500,51,104,102,82,76,15316,2147432027,2147799030,2147585024,2147830765,2147303661,2147448914,2147765833,2148279680,2998,6,15,43775
1343303716,5803,10.8000001907348630,219.4411926269531200,533.4500732421875000,6.8291378021240230,37.9143791198730500,51,104,102,81,76,15313,2147434093,2147799460,2147584182,2147833170,2147304320,2147447872,2147768987,2148280402,899,6,14,3020
1343307316,5805,10.0000000000000000,218.3171997070312500,533.2286987304688000,6.8361229896545410,37.9734611511230500,51,119,102,82,76,15312,2147434340,2147798665,2147582994,2147834322,2147305344,2147449024,2147766070,2148279076,35,6,14,7219
1343310657,5803,1089.0000000000000000,217.3193054199218800,533.1179809570312000,6.8396148681640625,38.0282096862793000,51,105,102,83,77,15312,2147432978,2147798427,2147587766,2147835776,2147305645,2147449636,2147768832,2148277741,3479,6,14,45622
